Location: Kerb�bon
(47.7970°N, 3.3487°W)
Time: 12:41:24
(UTC+00:00)

Cosmos 923 Rocket - Pass Details

Date: 12 May 2021
Orbit: 758 x 786 km, 74.0° (Epoch: 18 June)

Event Time Altitude Azimuth Distance (km) Brightness Sun altitude
Rises 22:05:26 0° 336° (NNW) 3,247 8.9 -18.2°
Reaches altitude 10° 22:07:48 10° 335° (NNW) 2,320 7.8 -18.4°
Maximum altitude 22:13:04 75° 251° (WSW) 803 4.0 -18.9°
Enters shadow 22:15:21 35° 172° (S) 1,245 4.6 -19.0°
